QPF
0.00 0.00 0.00 0.00 0.00 0.00 0.00 0.00 0.00 0.00 0.00 0.00 0.00 0.00 0.01 0.01 0.01 0.01 0.02 0.02 0.03 0.03 0.04 0.04 0.05 0.05 0.04 0.04 0.03 0.03 0.05 0.07 0.06 0.05 0.04 0.02 0.01 0.02 0.02 0.03 0.04 0.05 0.06 0.06
0.00 0.00 0.00 0.00 0.00 0.00 0.00 0.00 0.00 0.00 0.00 0.00 0.00 0.00 0.00 0.01 0.01 0.01 0.01 0.01 0.02 0.02 0.03 0.04 0.06 0.07 0.05 0.05 0.05 0.04 0.04 0.06 0.07 0.06 0.05 0.03 0.03 0.04 0.03 0.03 0.04 0.05 0.04 0.04
0.00 0.00 0.00 0.00 0.00 0.00 0.00 0.00 0.00 0.00 0.00 0.00 0.00 0.00 0.01 0.01 0.02 0.02 0.01 0.02 0.02 0.03 0.05 0.05 0.05 0.05 0.04 0.05 0.05 0.05 0.04 0.05 0.05 0.05 0.04 0.02 0.02 0.03 0.03 0.03 0.04 0.05 0.06 0.05
0.00 0.00 0.00 0.00 0.00 0.00 0.00 0.00 0.00 0.00 0.01 0.01 0.02 0.02 0.02 0.01 0.01 0.02 0.02 0.04 0.06 0.06 0.07 0.07 0.05 0.04 0.04 0.05 0.04 0.04 0.05 0.05 0.05 0.04 0.03 0.02 0.03 0.02 0.03 0.04 0.05 0.06 0.06 0.05
0.00 0.00 0.00 0.00 0.00 0.00 0.00 0.00 0.01 0.01 0.01 0.01 0.02 0.02 0.03 0.03 0.02 0.02 0.03 0.04 0.06 0.08 0.07 0.07 0.05 0.06 0.05 0.05 0.04 0.04 0.05 0.05 0.05 0.03 0.03 0.02 0.03 0.03 0.03 0.03 0.03 0.04 0.04 0.07
0.00 0.00 0.00 0.00 0.00 0.00 0.00 0.01 0.01 0.01 0.01 0.01 0.01 0.02 0.03 0.04 0.04 0.04 0.04 0.04 0.05 0.06 0.05 0.05 0.05 0.06 0.07 0.05 0.04 0.03 0.04 0.04 0.03 0.03 0.03 0.03 0.03 0.04 0.03 0.03 0.03 0.03 0.04 0.04
0.00 0.00 0.00 0.00 0.00 0.00 0.01 0.01 0.01 0.01 0.01 0.01 0.02 0.02 0.03 0.04 0.04 0.04 0.05 0.05 0.06 0.06 0.05 0.05 0.05 0.05 0.05 0.04 0.03 0.03 0.03 0.04 0.03 0.04 0.04 0.05 0.05 0.04 0.03 0.03 0.04 0.04 0.04 0.03
0.00 0.00 0.00 0.00 0.00 0.00 0.01 0.01 0.01 0.02 0.02 0.02 0.03 0.04 0.04 0.05 0.05 0.05 0.05 0.06 0.06 0.06 0.05 0.06 0.07 0.07 0.06 0.04 0.03 0.04 0.04 0.04 0.05 0.06 0.07 0.07 0.06 0.05 0.05 0.05 0.05 0.05 0.04 0.03
0.00 0.00 0.00 0.00 0.00 0.00 0.01 0.01 0.01 0.01 0.02 0.02 0.02 0.03 0.03 0.04 0.05 0.06 0.10 0.12 0.11 0.08 0.06 0.06 0.09 0.09 0.07 0.05 0.04 0.03 0.03 0.04 0.05 0.07 0.08 0.09 0.08 0.07 0.07 0.06 0.05 0.05 0.04 0.03
0.00 0.01 0.01 0.01 0.01 0.01 0.01 0.02 0.01 0.01 0.02 0.02 0.03 0.03 0.04 0.04 0.04 0.04 0.05 0.07 0.08 0.10 0.10 0.09 0.08 0.06 0.06 0.05 0.05 0.04 0.04 0.04 0.04 0.06 0.07 0.07 0.07 0.06 0.06 0.04 0.04 0.04 0.04 0.04
0.01 0.01 0.02 0.02 0.02 0.02 0.02 0.02 0.03 0.03 0.03 0.02 0.02 0.03 0.03 0.04 0.04 0.04 0.03 0.03 0.03 0.04 0.06 0.08 0.07 0.06 0.06 0.05 0.05 0.05 0.05 0.05 0.05 0.05 0.06 0.07 0.06 0.06 0.05 0.04 0.05 0.06 0.06 0.07
0.01 0.01 0.02 0.02 0.02 0.02 0.02 0.03 0.03 0.03 0.04 0.04 0.04 0.04 0.04 0.04 0.04 0.03 0.02 0.02 0.02 0.01 0.02 0.02 0.03 0.04 0.05 0.05 0.05 0.06 0.06 0.05 0.05 0.05 0.05 0.04 0.05 0.06 0.07 0.07 0.08 0.08 0.08 0.08
0.02 0.02 0.03 0.03 0.03 0.03 0.03 0.03 0.03 0.03 0.04 0.04 0.04 0.04 0.04 0.04 0.04 0.03 0.02 0.02 0.02 0.01 0.01 0.02 0.02 0.02 0.03 0.04 0.05 0.06 0.06 0.06 0.06 0.07 0.07 0.07 0.07 0.07 0.07 0.07 0.07 0.08 0.09 0.09
0.03 0.04 0.05 0.05 0.05 0.05 0.06 0.05 0.05 0.04 0.04 0.04 0.03 0.04 0.04 0.04 0.03 0.03 0.02 0.02 0.02 0.02 0.02 0.02 0.02 0.03 0.03 0.04 0.06 0.08 0.09 0.07 0.06 0.07 0.07 0.08 0.08 0.07 0.06 0.05 0.05 0.05 0.06 0.07
0.05 0.05 0.06 0.07 0.07 0.06 0.06 0.07 0.07 0.07 0.05 0.05 0.04 0.04 0.04 0.03 0.03 0.02 0.02 0.02 0.02 0.02 0.02 0.03 0.03 0.03 0.04 0.05 0.06 0.07 0.09 0.10 0.08 0.08 0.08 0.08 0.07 0.06 0.06 0.05 0.05 0.05 0.05 0.06
0.06 0.07 0.07 0.07 0.07 0.07 0.07 0.06 0.06 0.07 0.06 0.06 0.05 0.05 0.05 0.03 0.02 0.02 0.01 0.02 0.02 0.01 0.01 0.02 0.04 0.05 0.06 0.05 0.05 0.06 0.07 0.08 0.07 0.07 0.06 0.06 0.05 0.04 0.03 0.03 0.03 0.03 0.03 0.03
0.04 0.06 0.08 0.09 0.08 0.07 0.06 0.05 0.05 0.05 0.05 0.05 0.06 0.07 0.06 0.04 0.03 0.02 0.02 0.02 0.02 0.01 0.02 0.02 0.03 0.05 0.06 0.04 0.04 0.06 0.08 0.08 0.07 0.06 0.05 0.04 0.03 0.03 0.04 0.03 0.03 0.02 0.02 0.02
0.04 0.04 0.05 0.07 0.07 0.07 0.06 0.05 0.03 0.03 0.03 0.03 0.04 0.05 0.07 0.06 0.04 0.03 0.02 0.02 0.02 0.02 0.02 0.02 0.03 0.04 0.03 0.03 0.03 0.03 0.04 0.04 0.05 0.06 0.05 0.04 0.04 0.04 0.05 0.06 0.05 0.04 0.03 0.03
0.05 0.04 0.03 0.03 0.04 0.04 0.04 0.04 0.02 0.02 0.02 0.03 0.04 0.04 0.07 0.09 0.06 0.04 0.03 0.02 0.02 0.02 0.02 0.02 0.03 0.03 0.02 0.02 0.02 0.02 0.02 0.02 0.02 0.02 0.03 0.03 0.03 0.04 0.04 0.04 0.03 0.02 0.03 0.03
0.05 0.04 0.04 0.03 0.03 0.03 0.03 0.02 0.01 0.02 0.02 0.04 0.04 0.04 0.06 0.08 0.06 0.04 0.02 0.02 0.02 0.02 0.02 0.02 0.02 0.01 0.01 0.01 0.02 0.01 0.01 0.01 0.01 0.01 0.01 0.01 0.02 0.02 0.02 0.02 0.02 0.01 0.01 0.02
0.04 0.04 0.03 0.02 0.02 0.02 0.03 0.02 0.02 0.02 0.02 0.02 0.03 0.03 0.03 0.04 0.04 0.03 0.02 0.02 0.02 0.02 0.02 0.03 0.02 0.01 0.01 0.01 0.01 0.01 0.00 0.00 0.01 0.01 0.02 0.02 0.02 0.02 0.01 0.01 0.01 0.01 0.01 0.01
0.04 0.04 0.03 0.03 0.02 0.03 0.03 0.03 0.02 0.02 0.01 0.01 0.02 0.02 0.02 0.02 0.02 0.02 0.02 0.02 0.01 0.02 0.01 0.01 0.01 0.02 0.02 0.02 0.01 0.01 0.01 0.01 0.01 0.01 0.02 0.02 0.02 0.02 0.01 0.01 0.01 0.01 0.01 0.01
0.06 0.06 0.05 0.04 0.03 0.03 0.02 0.02 0.01 0.01 0.01 0.01 0.01 0.01 0.02 0.02 0.01 0.01 0.02 0.01 0.01 0.01 0.01 0.01 0.01 0.01 0.01 0.01 0.01 0.01 0.01 0.01 0.02 0.02 0.03 0.03 0.03 0.03 0.02 0.02 0.01 0.00 0.00 0.00
0.06 0.06 0.06 0.03 0.02 0.02 0.01 0.01 0.01 0.01 0.00 0.00 0.00 0.01 0.01 0.01 0.01 0.01 0.01 0.01 0.01 0.01 0.00 0.01 0.01 0.01 0.00 0.00 0.01 0.01 0.01 0.02 0.02 0.01 0.01 0.02 0.02 0.02 0.01 0.01 0.01 0.00 0.00 0.00
0.05 0.05 0.04 0.03 0.02 0.01 0.01 0.01 0.01 0.01 0.01 0.01 0.01 0.01 0.01 0.01 0.01 0.01 0.01 0.01 0.01 0.01 0.01 0.01 0.00 0.00 0.00 0.00 0.00 0.00 0.00 0.00 0.00 0.00 0.00 0.01 0.01 0.00 0.00 0.00 0.00 0.00 0.00 0.00
0.04 0.04 0.04 0.03 0.02 0.02 0.01 0.01 0.01 0.02 0.02 0.01 0.01 0.01 0.01 0.01 0.01 0.01 0.01 0.01 0.01 0.01 0.01 0.00 0.00 0.00 0.00 0.00 0.00 0.00 0.00 0.00 0.00 0.00 0.00 0.00 0.00 0.00 0.00 0.00 0.00 0.00 0.00 0.00
0.04 0.04 0.03 0.03 0.03 0.02 0.02 0.01 0.02 0.02 0.01 0.01 0.01 0.01 0.02 0.02 0.01 0.01 0.01 0.01 0.01 0.01 0.00 0.00 0.01 0.01 0.00 0.00 0.00 0.00 0.00 0.00 0.00 0.00 0.00 0.00 0.00 0.00 0.00 0.00 0.00 0.00 0.00 0.00
MSLP
1013.22 1013.28 1013.43 1013.67 1013.93 1014.14 1014.22 1014.12 1013.79 1013.23 1012.49 1011.63 1010.76 1009.99 1009.41 1009.07 1009.01 1009.21 1009.63 1010.19 1010.81 1011.41 1011.96 1012.40 1012.75 1013.02 1013.23 1013.43 1013.63 1013.85 1014.09 1014.33 1014.54 1014.71 1014.81 1014.84 1014.78 1014.67 1014.51 1014.32 1014.13 1013.96 1013.81 1013.71
1013.45 1013.42 1013.44 1013.50 1013.55 1013.55 1013.45 1013.20 1012.78 1012.21 1011.51 1010.76 1010.03 1009.40 1008.94 1008.70 1008.69 1008.91 1009.30 1009.82 1010.40 1011.00 1011.56 1012.06 1012.49 1012.88 1013.22 1013.55 1013.86 1014.18 1014.49 1014.77 1015.00 1015.18 1015.28 1015.29 1015.22 1015.09 1014.90 1014.69 1014.45 1014.22 1014.01 1013.83
1013.83 1013.73 1013.65 1013.56 1013.44 1013.26 1012.99 1012.61 1012.11 1011.50 1010.83 1010.13 1009.48 1008.94 1008.55 1008.36 1008.36 1008.55 1008.91 1009.39 1009.94 1010.52 1011.11 1011.67 1012.20 1012.70 1013.18 1013.63 1014.07 1014.48 1014.86 1015.19 1015.45 1015.64 1015.75 1015.77 1015.71 1015.58 1015.40 1015.18 1014.93 1014.68 1014.43 1014.20
1014.36 1014.22 1014.05 1013.85 1013.59 1013.27 1012.86 1012.36 1011.77 1011.11 1010.42 1009.74 1009.12 1008.60 1008.24 1008.04 1008.03 1008.19 1008.50 1008.94 1009.46 1010.04 1010.66 1011.28 1011.90 1012.51 1013.11 1013.68 1014.22 1014.72 1015.16 1015.53 1015.83 1016.04 1016.17 1016.21 1016.18 1016.09 1015.94 1015.75 1015.54 1015.30 1015.06 1014.82
1014.98 1014.79 1014.56 1014.27 1013.91 1013.47 1012.95 1012.34 1011.67 1010.95 1010.22 1009.52 1008.89 1008.37 1007.99 1007.78 1007.73 1007.85 1008.13 1008.53 1009.04 1009.63 1010.28 1010.96 1011.66 1012.36 1013.05 1013.71 1014.33 1014.89 1015.37 1015.78 1016.11 1016.35 1016.51 1016.60 1016.62 1016.59 1016.51 1016.39 1016.24 1016.06 1015.86 1015.65
1015.58 1015.35 1015.06 1014.70 1014.26 1013.73 1013.12 1012.43 1011.68 1010.90 1010.12 1009.39 1008.74 1008.20 1007.80 1007.56 1007.49 1007.58 1007.83 1008.23 1008.74 1009.35 1010.04 1010.77 1011.53 1012.30 1013.05 1013.77 1014.43 1015.03 1015.54 1015.97 1016.32 1016.60 1016.80 1016.94 1017.04 1017.10 1017.11 1017.09 1017.03 1016.94 1016.81 1016.66
1016.05 1015.77 1015.42 1015.00 1014.50 1013.91 1013.23 1012.49 1011.68 1010.86 1010.05 1009.29 1008.61 1008.06 1007.65 1007.40 1007.32 1007.41 1007.67 1008.08 1008.61 1009.25 1009.98 1010.75 1011.56 1012.37 1013.15 1013.89 1014.57 1015.17 1015.70 1016.14 1016.51 1016.82 1017.08 1017.29 1017.48 1017.63 1017.76 1017.85 1017.90 1017.91 1017.87 1017.80
1016.27 1015.93 1015.54 1015.08 1014.54 1013.91 1013.20 1012.42 1011.60 1010.75 1009.93 1009.16 1008.48 1007.93 1007.53 1007.30 1007.25 1007.37 1007.65 1008.10 1008.67 1009.35 1010.11 1010.92 1011.75 1012.57 1013.37 1014.10 1014.77 1015.37 1015.89 1016.34 1016.73 1017.07 1017.38 1017.68 1017.95 1018.21 1018.45 1018.65 1018.82 1018.93 1018.99 1019.00
1016.20 1015.81 1015.38 1014.89 1014.33 1013.69 1012.97 1012.20 1011.38 1010.55 1009.74 1008.99 1008.34 1007.83 1007.46 1007.28 1007.27 1007.44 1007.79 1008.28 1008.91 1009.63 1010.43 1011.26 1012.09 1012.91 1013.69 1014.40 1015.04 1015.62 1016.13 1016.58 1016.99 1017.37 1017.74 1018.11 1018.47 1018.83 1019.17 1019.49 1019.75 1019.96 1020.11 1020.19
1015.85 1015.42 1014.96 1014.45 1013.89 1013.27 1012.58 1011.83 1011.05 1010.27 1009.50 1008.80 1008.21 1007.75 1007.45 1007.33 1007.40 1007.64 1008.06 1008.62 1009.30 1010.06 1010.88 1011.72 1012.55 1013.34 1014.09 1014.76 1015.37 1015.92 1016.41 1016.86 1017.29 1017.71 1018.14 1018.58 1019.03 1019.47 1019.90 1020.31 1020.66 1020.95 1021.17 1021.32
1015.28 1014.82 1014.35 1013.85 1013.32 1012.73 1012.09 1011.40 1010.68 1009.95 1009.26 1008.63 1008.11 1007.73 1007.51 1007.48 1007.62 1007.95 1008.44 1009.06 1009.79 1010.59 1011.42 1012.26 1013.07 1013.83 1014.53 1015.16 1015.73 1016.24 1016.72 1017.17 1017.62 1018.08 1018.56 1019.06 1019.57 1020.09 1020.59 1021.06 1021.48 1021.83 1022.11 1022.31
1014.59 1014.12 1013.66 1013.20 1012.70 1012.16 1011.58 1010.96 1010.32 1009.67 1009.05 1008.51 1008.08 1007.79 1007.66 1007.71 1007.95 1008.35 1008.91 1009.59 1010.36 1011.18 1012.02 1012.83 1013.61 1014.32 1014.98 1015.56 1016.08 1016.56 1017.02 1017.48 1017.94 1018.43 1018.95 1019.50 1020.07 1020.64 1021.19 1021.71 1022.17 1022.56 1022.87 1023.11
1013.87 1013.43 1013.00 1012.57 1012.13 1011.66 1011.15 1010.60 1010.03 1009.47 1008.94 1008.48 1008.14 1007.93 1007.90 1008.04 1008.35 1008.83 1009.45 1010.18 1010.98 1011.80 1012.63 1013.42 1014.15 1014.82 1015.41 1015.94 1016.42 1016.87 1017.31 1017.76 1018.24 1018.75 1019.30 1019.89 1020.49 1021.09 1021.68 1022.22 1022.71 1023.12 1023.46 1023.72
1013.22 1012.81 1012.43 1012.06 1011.68 1011.27 1010.82 1010.35 1009.85 1009.37 1008.92 1008.55 1008.29 1008.18 1008.23 1008.45 1008.84 1009.39 1010.06 1010.82 1011.63 1012.46 1013.26 1014.01 1014.69 1015.30 1015.84 1016.31 1016.75 1017.17 1017.59 1018.03 1018.51 1019.04 1019.61 1020.21 1020.84 1021.46 1022.06 1022.61 1023.10 1023.52 1023.87 1024.14
1012.67 1012.32 1011.99 1011.68 1011.35 1011.00 1010.62 1010.21 1009.79 1009.38 1009.01 1008.72 1008.55 1008.52 1008.65 1008.95 1009.41 1010.01 1010.72 1011.51 1012.32 1013.13 1013.90 1014.61 1015.24 1015.80 1016.28 1016.70 1017.09 1017.47 1017.87 1018.31 1018.78 1019.31 1019.89 1020.50 1021.13 1021.75 1022.35 1022.90 1023.39 1023.80 1024.15 1024.42
1012.26 1011.96 1011.69 1011.42 1011.15 1010.85 1010.53 1010.18 1009.82 1009.48 1009.19 1008.98 1008.89 1008.95 1009.16 1009.53 1010.05 1010.70 1011.44 1012.24 1013.05 1013.84 1014.58 1015.24 1015.82 1016.31 1016.74 1017.11 1017.46 1017.81 1018.19 1018.60 1019.07 1019.60 1020.17 1020.78 1021.40 1022.01 1022.59 1023.12 1023.60 1024.00 1024.33 1024.60
1011.97 1011.72 1011.50 1011.28 1011.06 1010.81 1010.53 1010.24 1009.94 1009.67 1009.45 1009.32 1009.31 1009.44 1009.73 1010.17 1010.74 1011.42 1012.19 1012.99 1013.79 1014.55 1015.25 1015.87 1016.40 1016.84 1017.22 1017.55 1017.86 1018.18 1018.53 1018.93 1019.39 1019.90 1020.46 1021.06 1021.66 1022.25 1022.81 1023.32 1023.77 1024.15 1024.46 1024.71
1011.81 1011.60 1011.42 1011.24 1011.05 1010.84 1010.61 1010.36 1010.12 1009.92 1009.77 1009.72 1009.79 1010.00 1010.35 1010.84 1011.46 1012.17 1012.94 1013.74 1014.52 1015.25 1015.90 1016.47 1016.95 1017.35 1017.69 1017.98 1018.27 1018.57 1018.90 1019.29 1019.73 1020.23 1020.78 1021.35 1021.93 1022.50 1023.02 1023.50 1023.92 1024.27 1024.55 1024.78
1011.77 1011.60 1011.45 1011.29 1011.13 1010.95 1010.76 1010.56 1010.38 1010.24 1010.16 1010.18 1010.32 1010.60 1011.00 1011.54 1012.18 1012.90 1013.67 1014.44 1015.18 1015.87 1016.48 1017.00 1017.44 1017.80 1018.10 1018.38 1018.64 1018.93 1019.26 1019.64 1020.07 1020.55 1021.08 1021.63 1022.18 1022.71 1023.20 1023.64 1024.02 1024.34 1024.60 1024.80
1011.88 1011.72 1011.59 1011.45 1011.31 1011.16 1011.00 1010.85 1010.72 1010.63 1010.62 1010.71 1010.90 1011.23 1011.67 1012.22 1012.87 1013.58 1014.31 1015.04 1015.74 1016.38 1016.93 1017.41 1017.81 1018.14 1018.42 1018.68 1018.94 1019.23 1019.55 1019.93 1020.35 1020.82 1021.33 1021.85 1022.36 1022.86 1023.31 1023.71 1024.05 1024.34 1024.56 1024.74
1012.13 1011.99 1011.86 1011.73 1011.61 1011.48 1011.35 1011.23 1011.15 1011.12 1011.16 1011.29 1011.53 1011.88 1012.34 1012.89 1013.51 1014.18 1014.87 1015.54 1016.17 1016.74 1017.24 1017.67 1018.03 1018.34 1018.61 1018.87 1019.13 1019.42 1019.75 1020.13 1020.54 1021.00 1021.48 1021.96 1022.44 1022.89 1023.30 1023.66 1023.96 1024.21 1024.41 1024.57
1012.53 1012.39 1012.26 1012.14 1012.03 1011.91 1011.81 1011.73 1011.68 1011.69 1011.78 1011.94 1012.21 1012.56 1013.01 1013.53 1014.10 1014.71 1015.32 1015.92 1016.47 1016.98 1017.42 1017.80 1018.13 1018.42 1018.68 1018.94 1019.21 1019.51 1019.85 1020.22 1020.62 1021.06 1021.50 1021.95 1022.38 1022.78 1023.14 1023.46 1023.72 1023.94 1024.12 1024.27
1013.06 1012.92 1012.79 1012.67 1012.56 1012.46 1012.38 1012.33 1012.32 1012.36 1012.47 1012.66 1012.92 1013.27 1013.68 1014.15 1014.66 1015.19 1015.71 1016.22 1016.69 1017.12 1017.50 1017.83 1018.13 1018.41 1018.67 1018.93 1019.21 1019.52 1019.85 1020.21 1020.60 1021.00 1021.41 1021.80 1022.18 1022.53 1022.83 1023.10 1023.33 1023.53 1023.69 1023.84
1013.68 1013.53 1013.40 1013.28 1013.18 1013.10 1013.05 1013.02 1013.04 1013.11 1013.23 1013.43 1013.68 1014.00 1014.36 1014.77 1015.20 1015.65 1016.08 1016.50 1016.89 1017.24 1017.56 1017.85 1018.12 1018.38 1018.63 1018.90 1019.18 1019.48 1019.81 1020.15 1020.50 1020.86 1021.21 1021.55 1021.87 1022.15 1022.41 1022.63 1022.83 1023.00 1023.15 1023.30
1014.32 1014.17 1014.05 1013.94 1013.86 1013.80 1013.77 1013.77 1013.81 1013.91 1014.05 1014.23 1014.47 1014.76 1015.07 1015.42 1015.77 1016.13 1016.48 1016.81 1017.12 1017.41 1017.67 1017.92 1018.16 1018.40 1018.65 1018.91 1019.18 1019.47 1019.77 1020.07 1020.38 1020.69 1020.98 1021.25 1021.49 1021.72 1021.91 1022.09 1022.25 1022.41 1022.56 1022.71
1014.94 1014.80 1014.69 1014.60 1014.54 1014.51 1014.51 1014.54 1014.62 1014.73 1014.88 1015.07 1015.29 1015.55 1015.82 1016.10 1016.39 1016.67 1016.94 1017.20 1017.44 1017.67 1017.89 1018.10 1018.31 1018.53 1018.76 1019.00 1019.25 1019.51 1019.77 1020.03 1020.29 1020.53 1020.75 1020.94 1021.12 1021.28 1021.42 1021.55 1021.68 1021.82 1021.96 1022.12
1015.50 1015.38 1015.29 1015.23 1015.20 1015.21 1015.25 1015.32 1015.42 1015.56 1015.73 1015.92 1016.13 1016.36 1016.59 1016.83 1017.06 1017.28 1017.49 1017.68 1017.87 1018.05 1018.23 1018.40 1018.59 1018.78 1018.98 1019.19 1019.41 1019.63 1019.85 1020.05 1020.24 1020.41 1020.56 1020.69 1020.79 1020.89 1020.98 1021.08 1021.18 1021.29 1021.43 1021.59
Thickness
5737 5747 5750 5752 5751 5745 5744 5737 5731 5740 5743 5760 5769 5772 5775 5776 5774 5772 5769 5767 5765 5762 5760 5757 5755 5752 5749 5747 5745 5743 5739 5736 5734 5731 5729 5726 5724 5722 5721 5719 5717 5715 5713 5711
5733 5741 5745 5744 5748 5747 5748 5745 5744 5748 5750 5768 5772 5772 5771 5772 5771 5770 5769 5768 5766 5763 5760 5756 5754 5751 5748 5745 5743 5740 5736 5733 5730 5727 5724 5721 5719 5717 5716 5713 5711 5709 5706 5704
5712 5729 5736 5725 5741 5745 5748 5750 5748 5746 5758 5768 5767 5767 5769 5771 5772 5771 5771 5768 5765 5762 5759 5756 5754 5752 5747 5743 5740 5736 5733 5729 5726 5722 5719 5717 5714 5712 5709 5706 5704 5701 5699 5697
5700 5713 5704 5725 5747 5751 5749 5751 5754 5757 5762 5765 5767 5769 5771 5771 5771 5770 5769 5766 5763 5761 5757 5754 5751 5748 5744 5740 5736 5732 5728 5725 5721 5717 5714 5710 5707 5704 5702 5699 5696 5694 5691 5689
5686 5691 5703 5725 5739 5741 5739 5741 5752 5753 5757 5760 5763 5763 5762 5767 5768 5767 5766 5764 5761 5758 5756 5752 5748 5744 5740 5735 5731 5727 5723 5719 5716 5712 5708 5704 5700 5697 5694 5692 5689 5685 5683 5680
5682 5687 5688 5715 5737 5744 5739 5731 5749 5750 5751 5753 5755 5745 5752 5762 5763 5761 5760 5758 5756 5754 5750 5747 5743 5740 5734 5729 5725 5721 5718 5714 5710 5706 5702 5698 5694 5690 5687 5684 5680 5677 5673 5671
5678 5682 5692 5717 5730 5736 5717 5726 5746 5747 5749 5749 5747 5750 5753 5756 5755 5754 5753 5751 5749 5746 5743 5740 5737 5733 5726 5722 5718 5715 5712 5708 5704 5699 5695 5691 5687 5683 5679 5675 5671 5667 5664 5660
5668 5673 5684 5716 5721 5719 5722 5735 5739 5742 5744 5743 5743 5745 5747 5747 5746 5745 5743 5742 5740 5737 5733 5731 5729 5725 5719 5714 5710 5708 5704 5700 5695 5691 5688 5683 5679 5674 5670 5667 5663 5658 5654 5650
5671 5677 5694 5704 5710 5718 5723 5726 5731 5734 5737 5738 5736 5736 5737 5736 5736 5734 5733 5731 5730 5728 5723 5720 5718 5716 5711 5706 5703 5700 5696 5691 5687 5682 5678 5674 5670 5665 5661 5658 5654 5649 5645 5640
5666 5678 5689 5696 5704 5711 5717 5721 5725 5728 5730 5731 5729 5727 5726 5725 5724 5724 5722 5721 5720 5717 5713 5709 5706 5704 5702 5698 5694 5692 5688 5682 5678 5673 5668 5663 5660 5656 5652 5648 5644 5640 5635 5630
5658 5670 5680 5689 5694 5701 5708 5713 5717 5719 5721 5721 5720 5718 5716 5714 5713 5713 5712 5711 5710 5707 5703 5699 5696 5693 5691 5689 5686 5682 5678 5673 5668 5663 5658 5653 5647 5643 5641 5637 5635 5632 5627 5622
5651 5663 5667 5675 5684 5692 5696 5701 5705 5707 5708 5709 5710 5708 5706 5704 5702 5702 5701 5699 5697 5694 5692 5690 5686 5683 5681 5679 5676 5672 5667 5662 5657 5653 5648 5642 5637 5630 5626 5624 5622 5619 5616 5612
5652 5659 5662 5669 5676 5681 5685 5689 5694 5696 5696 5696 5697 5697 5695 5693 5691 5690 5689 5688 5685 5683 5681 5679 5676 5673 5671 5669 5666 5662 5657 5652 5647 5642 5637 5632 5627 5623 5616 5610 5608 5605 5603 5600
5648 5651 5654 5660 5664 5669 5674 5678 5681 5683 5684 5684 5685 5685 5684 5682 5680 5679 5677 5675 5674 5673 5671 5669 5665 5662 5660 5658 5655 5650 5646 5641 5637 5632 5627 5622 5617 5613 5609 5604 5598 5592 5589 5587
5642 5645 5647 5651 5654 5658 5662 5666 5668 5670 5671 5672 5673 5673 5672 5671 5669 5666 5665 5664 5663 5662 5660 5658 5654 5651 5649 5647 5644 5639 5635 5630 5625 5622 5617 5612 5607 5603 5598 5593 5588 5583 5578 5574
5634 5637 5640 5642 5644 5647 5651 5655 5657 5659 5660 5661 5661 5660 5660 5659 5657 5654 5653 5653 5652 5650 5648 5646 5643 5640 5638 5636 5633 5628 5624 5620 5616 5611 5606 5601 5597 5592 5588 5583 5578 5574 5570 5566
5626 5629 5631 5633 5636 5638 5641 5644 5647 5649 5650 5650 5650 5650 5649 5647 5646 5643 5642 5641 5640 5638 5636 5635 5632 5630 5627 5625 5622 5618 5614 5609 5606 5601 5596 5592 5588 5583 5579 5574 5569 5565 5561 5557
5624 5628 5629 5630 5631 5632 5632 5633 5636 5638 5639 5640 5640 5639 5639 5637 5635 5632 5631 5630 5629 5626 5624 5623 5621 5619 5617 5614 5611 5607 5604 5599 5595 5591 5586 5582 5578 5574 5569 5565 5561 5556 5551 5547
5618 5621 5623 5624 5624 5624 5624 5624 5625 5627 5629 5630 5629 5628 5627 5625 5623 5621 5620 5620 5618 5616 5613 5612 5611 5609 5606 5603 5600 5597 5594 5590 5585 5581 5577 5572 5568 5564 5560 5556 5552 5548 5544 5540
5611 5613 5614 5615 5616 5616 5616 5617 5617 5618 5618 5618 5618 5617 5615 5614 5613 5612 5610 5608 5606 5605 5603 5602 5601 5598 5596 5593 5590 5587 5584 5581 5577 5572 5568 5564 5560 5556 5552 5548 5544 5540 5536 5532
5603 5605 5606 5607 5607 5608 5608 5608 5609 5608 5608 5609 5608 5607 5606 5604 5603 5601 5600 5598 5594 5594 5593 5592 5590 5588 5586 5583 5581 5578 5574 5571 5568 5564 5560 5556 5552 5548 5545 5541 5537 5533 5530 5526
5596 5597 5598 5599 5600 5599 5599 5600 5600 5600 5600 5599 5599 5598 5596 5594 5592 5591 5589 5588 5585 5585 5584 5582 5580 5579 5577 5575 5572 5569 5566 5563 5559 5556 5552 5549 5545 5542 5538 5535 5531 5528 5524 5520
5590 5591 5592 5593 5593 5592 5592 5592 5592 5593 5592 5591 5590 5589 5587 5585 5584 5584 5581 5578 5578 5577 5576 5574 5572 5570 5569 5567 5564 5561 5558 5555 5553 5550 5546 5543 5540 5536 5533 5530 5526 5523 5519 5515
5584 5585 5585 5586 5586 5586 5585 5584 5584 5584 5583 5583 5581 5581 5580 5578 5576 5575 5574 5572 5571 5570 5568 5565 5564 5563 5561 5559 5556 5553 5551 5548 5546 5544 5541 5538 5535 5531 5528 5524 5521 5518 5514 5511
5579 5579 5580 5580 5580 5579 5578 5578 5577 5576 5576 5575 5574 5573 5572 5572 5570 5568 5566 5565 5563 5562 5560 5559 5557 5556 5554 5552 5549 5547 5545 5543 5541 5538 5536 5533 5530 5527 5524 5520 5517 5514 5511 5508
5574 5574 5574 5574 5574 5573 5573 5572 5571 5570 5570 5569 5567 5566 5565 5564 5562 5561 5560 5558 5557 5555 5554 5552 5551 5549 5548 5546 5544 5542 5540 5538 5536 5534 5532 5529 5526 5523 5520 5517 5514 5510 5507 5504
5568 5568 5568 5567 5566 5567 5567 5567 5566 5565 5564 5564 5562 5560 5559 5558 5556 5555 5554 5552 5550 5549 5547 5546 5545 5543 5542 5541 5539 5537 5535 5534 5532 5530 5527 5525 5522 5519 5516 5513 5510 5507 5504 5500